"Pseudo-MPEC" for P10SDwB

Created 2019 Oct 16 18:07:09 UT using Find_Orb

Click here for an explanation of pseudo-MPECs

 
 Astrometry: 
     P10SDwB  C2019 10 09CL!2m6BAb7YJW2#PHrXPE/AstrometrymyT86JJDOmqPZg9O9MSJF51
     P10SDwB  C2019 10 09_0redacted;!-(38click'herev+ZPwpTGo*o@ZO^GQQvE$)o=9JF51
     P10SDwB  C2019 10 09Ku]=WZH70y.eF#ooC)x[QP2'Ok1x.$forI3explanation,P1@RHF51

Station data:
(F51) Pan-STARRS 1, Haleakala  (N20.707235 W156.255910)  US/Hawaii.
   Observers N. Primak, A. Schultz, S. Watters, J. Thiel, T. Goggia. Measurer
   PS1 Science Consortium. 1.8-m Ritchey-Chrétien + CCD.

Orbital elements:  P10SDwB
   Perihelion 2019 Dec 22.907944 +/- 32.1 TT = 21:47:26 (JD 2458840.407944)
Epoch 2019 Oct 10.0 TT = JDT 2458766.5   Earth MOID: 0.2438   AutoNEOCP
M 341.73562996 +/- 44               (J2000 ecliptic)
n   0.24712323 +/- 0.434            Peri.  329.00798 +/- 130
a   2.51493634 +/- 3.13             Node   130.49119 +/- 51
e   0.5177813 +/- 0.24              Incl.    9.49013 +/- 38
P   3.99                   H 20.4   G  0.15   U 12.2  SR
q 1.21274913 +/- 0.452    Q 3.81712355 +/- 25.5
From 3 observations 2019 Oct. 9 (42.6 min); mean residual 0".05
Residuals in arcseconds: 
191009 F51  .03-  .00     191009 F51  .08+  .00     191009 F51  .08-  .00     

Ephemerides (geocentric):
Date (UTC) HH   RA              Dec         delta   r     elong  mag " sig PA
---- -- -- --  -------------   -----------  ------ ------ -----  --- ---- ---
2019 10 16 18  05 33 47.373   +02 08 30.78  .64629 1.4175 117.6 21.8  64d   2
2019 10 16 19  05 33 53.994   +02 08 06.94  .64593 1.4173 117.7 21.8  64d   2
2019 10 16 20  05 34 00.616   +02 07 43.09  .64557 1.4170 117.7 21.8  64d   2
2019 10 16 21  05 34 07.239   +02 07 19.23  .64522 1.4168 117.7 21.8  64d   2
2019 10 16 22  05 34 13.863   +02 06 55.36  .64486 1.4166 117.7 21.8  64d   2
2019 10 16 23  05 34 20.488   +02 06 31.47  .64451 1.4164 117.7 21.8  64d   2
2019 10 17 00  05 34 27.114   +02 06 07.57  .64415 1.4161 117.7 21.8  64d   2
2019 10 17 01  05 34 33.741   +02 05 43.66  .64379 1.4159 117.7 21.8  64d   2
2019 10 17 02  05 34 40.369   +02 05 19.73  .64344 1.4157 117.7 21.8  64d   2
2019 10 17 03  05 34 46.998   +02 04 55.79  .64308 1.4155 117.7 21.8  64d   2
2019 10 17 04  05 34 53.629   +02 04 31.83  .64273 1.4153 117.7 21.8  64d   2
2019 10 17 05  05 35 00.260   +02 04 07.86  .64237 1.4150 117.7 21.8  64d   2
2019 10 17 06  05 35 06.892   +02 03 43.88  .64202 1.4148 117.8 21.8  64d   2
2019 10 17 07  05 35 13.525   +02 03 19.89  .64166 1.4146 117.8 21.8  65d   2
2019 10 17 08  05 35 20.159   +02 02 55.88  .64131 1.4144 117.8 21.8  65d   2
2019 10 17 09  05 35 26.794   +02 02 31.86  .64095 1.4141 117.8 21.8  65d   2
2019 10 17 10  05 35 33.430   +02 02 07.82  .64060 1.4139 117.8 21.8  65d   2
2019 10 17 11  05 35 40.067   +02 01 43.77  .64025 1.4137 117.8 21.8  65d   2
2019 10 17 12  05 35 46.705   +02 01 19.71  .63989 1.4135 117.8 21.8  65d   2
2019 10 17 13  05 35 53.345   +02 00 55.64  .63954 1.4133 117.8 21.8  65d   2
2019 10 17 14  05 35 59.985   +02 00 31.55  .63919 1.4130 117.8 21.8  65d   2
2019 10 17 15  05 36 06.626   +02 00 07.45  .63883 1.4128 117.8 21.8  65d   2
2019 10 17 16  05 36 13.268   +01 59 43.34  .63848 1.4126 117.8 21.8  65d   2
2019 10 17 17  05 36 19.911   +01 59 19.21  .63813 1.4124 117.9 21.8  65d   2
2019 10 17 18  05 36 26.555   +01 58 55.07  .63777 1.4121 117.9 21.8  65d   2
2019 10 17 19  05 36 33.200   +01 58 30.92  .63742 1.4119 117.9 21.8  65d   2
2019 10 17 20  05 36 39.846   +01 58 06.76  .63707 1.4117 117.9 21.8  65d   2
2019 10 17 21  05 36 46.493   +01 57 42.58  .63672 1.4115 117.9 21.8  65d   2
2019 10 17 22  05 36 53.141   +01 57 18.39  .63637 1.4113 117.9 21.8  65d   2
2019 10 17 23  05 36 59.790   +01 56 54.19  .63601 1.4110 117.9 21.7  65d   2
2019 10 18 00  05 37 06.440   +01 56 29.97  .63566 1.4108 117.9 21.7  65d   2
2019 10 18 01  05 37 13.091   +01 56 05.74  .63531 1.4106 117.9 21.7  65d   2
2019 10 18 02  05 37 19.744   +01 55 41.50  .63496 1.4104 117.9 21.7  65d   2
2019 10 18 03  05 37 26.397   +01 55 17.24  .63461 1.4101 118.0 21.7  65d   2
2019 10 18 04  05 37 33.051   +01 54 52.98  .63426 1.4099 118.0 21.7  65d   2
2019 10 18 05  05 37 39.706   +01 54 28.70  .63391 1.4097 118.0 21.7  65d   2
2019 10 18 06  05 37 46.362   +01 54 04.40  .63356 1.4095 118.0 21.7  65d   2
2019 10 18 07  05 37 53.019   +01 53 40.10  .63321 1.4093 118.0 21.7  65d   2
2019 10 18 08  05 37 59.677   +01 53 15.78  .63286 1.4090 118.0 21.7  65d   2
2019 10 18 09  05 38 06.336   +01 52 51.45  .63251 1.4088 118.0 21.7  65d   2
2019 10 18 10  05 38 12.995   +01 52 27.11  .63216 1.4086 118.0 21.7  65d   2
2019 10 18 11  05 38 19.656   +01 52 02.75  .63181 1.4084 118.0 21.7  66d   2
2019 10 18 12  05 38 26.318   +01 51 38.38  .63146 1.4082 118.0 21.7  66d   2
2019 10 18 13  05 38 32.981   +01 51 14.00  .63111 1.4079 118.0 21.7  66d   2
2019 10 18 14  05 38 39.645   +01 50 49.61  .63076 1.4077 118.1 21.7  66d   2
2019 10 18 15  05 38 46.310   +01 50 25.21  .63042 1.4075 118.1 21.7  66d   2
2019 10 18 16  05 38 52.976   +01 50 00.79  .63007 1.4073 118.1 21.7  66d   2
2019 10 18 17  05 38 59.643   +01 49 36.36  .62972 1.4071 118.1 21.7  66d   2